| time (UTC) | temp F | wind direction | speed MPH | gust MPH | rain 1hr in | rain 24hr in | rain mn in | humidity % | barometer mb |
| 20260906213017 | 86 | 102 | 1.0 | 3.0 | 0.00 | 0.00 | 0.00 | 41 | 1021.7 |
| 20260906212015 | 87 | 93 | 1.0 | 3.0 | 0.00 | 0.00 | 0.00 | 39 | 1021.7 |
| 20260906211015 | 89 | 91 | 2.0 | 4.0 | 0.00 | 0.00 | 0.00 | 37 | 1021.9 |
| 20260906210015 | 89 | 88 | 2.0 | 7.0 | 0.00 | 0.00 | 0.00 | 37 | 1022.0 |
| 20260906205016 | 89 | 87 | 1.0 | 4.0 | 0.00 | 0.00 | 0.00 | 38 | 1022.1 |
| 20260906204056 | 89 | 92 | 1.0 | 3.0 | 0.00 | 0.00 | 0.00 | 37 | 1022.3 |
| 20260906203017 | 88 | 97 | 1.0 | 3.0 | 0.00 | 0.00 | 0.00 | 39 | 1022.4 |
| 20260906202017 | 87 | 88 | 2.0 | 4.0 | 0.00 | 0.00 | 0.00 | 40 | 1022.4 |
| 20260906201015 | 88 | 85 | 2.0 | 4.0 | 0.00 | 0.00 | 0.00 | 38 | 1022.6 |
| 20260906200015 | 88 | 104 | 1.0 | 3.0 | 0.00 | 0.00 | 0.00 | 39 | 1022.6 |
| 20260906195016 | 89 | 92 | 1.0 | 3.0 | 0.00 | 0.00 | 0.00 | 39 | 1022.7 |
| 20260906194036 | 88 | 83 | 1.0 | 4.0 | 0.00 | 0.00 | 0.00 | 40 | 1022.9 |
| 20260906193056 | 88 | 88 | 2.0 | 4.0 | 0.00 | 0.00 | 0.00 | 40 | 1023.0 |
| 20260906192017 | 87 | 95 | 1.0 | 5.0 | 0.00 | 0.00 | 0.00 | 40 | 1023.2 |
| 20260906191015 | 87 | 99 | 1.0 | 2.0 | 0.00 | 0.00 | 0.00 | 39 | 1023.3 |
| 20260906190015 | 88 | 94 | 1.0 | 3.0 | 0.00 | 0.00 | 0.00 | 40 | 1023.4 |
| 20260906185015 | 87 | 283 | 0.0 | 1.0 | 0.00 | 0.00 | 0.00 | 41 | 1023.7 |
| 20260906184016 | 85 | 105 | 0.0 | 1.0 | 0.00 | 0.00 | 0.00 | 42 | 1024.0 |
| 20260906183016 | 84 | 288 | 0.0 | 2.0 | 0.00 | 0.00 | 0.00 | 44 | 1024.3 |
| 20260906182016 | 82 | 302 | 0.0 | 1.0 | 0.00 | 0.00 | 0.00 | 45 | 1024.5 |
| 20260906181017 | 81 | 342 | 0.0 | 2.0 | 0.00 | 0.00 | 0.00 | 46 | 1024.8 |
| 20260906180014 | 80 | 263 | 0.0 | 1.0 | 0.00 | 0.00 | 0.00 | 47 | 1025.0 |
| 20260906175015 | 80 | 344 | 0.0 | 1.0 | 0.00 | 0.00 | 0.00 | 48 | 1025.3 |
| 20260906174016 | 78 | 258 | 0.0 | 1.0 | 0.00 | 0.00 | 0.00 | 50 | 1025.4 |
| 20260906173016 | 77 | 17 | 0.0 | 2.0 | 0.00 | 0.00 | 0.00 | 51 | 1025.5 |
| 20260906172016 | 76 | 247 | 0.0 | 1.0 | 0.00 | 0.00 | 0.00 | 55 | 1025.6 |
| 20260906171016 | 75 | 0.0 | 0.0 | 0.00 | 0.00 | 0.00 | 57 | 1025.7 | |
| 20260906170017 | 74 | 259 | 0.0 | 1.0 | 0.00 | 0.00 | 0.00 | 57 | 1025.7 |
| 20260906165015 | 74 | 247 | 0.0 | 2.0 | 0.00 | 0.00 | 0.00 | 58 | 1025.8 |
| 20260906164015 | 73 | 150 | 0.0 | 1.0 | 0.00 | 0.00 | 0.00 | 60 | 1025.9 |
| 20260906163015 | 72 | 276 | 0.0 | 1.0 | 0.00 | 0.00 | 0.00 | 61 | 1026.1 |
| 20260906162016 | 71 | 295 | 0.0 | 1.0 | 0.00 | 0.00 | 0.00 | 62 | 1026.1 |
| 20260906161056 | 71 | 293 | 0.0 | 1.0 | 0.00 | 0.00 | 0.00 | 65 | 1026.1 |
| 20260906160017 | 70 | 0.0 | 0.0 | 0.00 | 0.00 | 0.00 | 65 | 1025.9 | |
| 20260906155017 | 70 | 0.0 | 0.0 | 0.00 | 0.00 | 0.00 | 67 | 1025.9 | |
| 20260906154015 | 69 | 27 | 0.0 | 2.0 | 0.00 | 0.00 | 0.00 | 69 | 1026.1 |
| 20260906153015 | 68 | 41 | 0.0 | 1.0 | 0.00 | 0.00 | 0.00 | 71 | 1026.1 |
| 20260906152015 | 68 | 50 | 0.0 | 1.0 | 0.00 | 0.00 | 0.00 | 73 | 1025.9 |
| 20260906151017 | 67 | 239 | 0.0 | 1.0 | 0.00 | 0.00 | 0.00 | 73 | 1026.0 |
| 20260906145516 | 66 | 224 | 0.0 | 1.0 | 0.00 | 0.00 | 0.00 | 74 | 1026.0 |
| 20260906144537 | 65 | 143 | 0.0 | 2.0 | 0.00 | 0.00 | 0.00 | 74 | 1025.9 |
| 20260906143535 | 65 | 264 | 0.0 | 1.0 | 0.00 | 0.00 | 0.00 | 74 | 1025.9 |
| 20260906142515 | 64 | 277 | 0.0 | 1.0 | 0.00 | 0.00 | 0.00 | 74 | 1026.0 |
| 20260906141515 | 63 | 277 | 0.0 | 1.0 | 0.00 | 0.00 | 0.00 | 72 | 1026.1 |
| 20260906140516 | 63 | 0.0 | 0.0 | 0.00 | 0.00 | 0.00 | 71 | 1026.1 | |
| 20260906135516 | 62 | 277 | 0.0 | 1.0 | 0.00 | 0.00 | 0.00 | 71 | 1025.9 |
| 20260906134517 | 62 | 0.0 | 0.0 | 0.00 | 0.00 | 0.00 | 71 | 1025.7 | |
| 20260906133517 | 61 | 269 | 0.0 | 1.0 | 0.00 | 0.00 | 0.00 | 72 | 1025.7 |
| 20260906132535 | 60 | 0.0 | 0.0 | 0.00 | 0.00 | 0.00 | 73 | 1025.4 | |
| 20260906131515 | 60 | 0.0 | 0.0 | 0.00 | 0.00 | 0.00 | 74 | 1025.4 | |
| 20260906130516 | 59 | 0.0 | 0.0 | 0.00 | 0.00 | 0.00 | 73 | 1025.5 | |
| 20260906125516 | 59 | 0.0 | 0.0 | 0.00 | 0.00 | 0.00 | 74 | 1025.6 | |
| 20260906124516 | 59 | 0.0 | 0.0 | 0.00 | 0.00 | 0.00 | 74 | 1025.6 | |
| 20260906123517 | 59 | 0.0 | 0.0 | 0.00 | 0.00 | 0.00 | 73 | 1025.5 | |
| 20260906122517 | 60 | 0.0 | 0.0 | 0.00 | 0.00 | 0.00 | 72 | 1025.3 | |
| 20260906121535 | 60 | 0.0 | 0.0 | 0.00 | 0.00 | 0.00 | 72 | 1025.2 | |
| 20260906120555 | 60 | 0.0 | 0.0 | 0.00 | 0.00 | 0.00 | 72 | 1025.1 | |
| 20260906115516 | 60 | 0.0 | 0.0 | 0.00 | 0.00 | 0.00 | 72 | 1025.1 | |
| 20260906114516 | 60 | 274 | 0.0 | 1.0 | 0.00 | 0.00 | 0.00 | 72 | 1025.1 |
| 20260906113516 | 60 | 0.0 | 0.0 | 0.00 | 0.00 | 0.00 | 71 | 1025.1 | |
| 20260906112537 | 61 | 0.0 | 0.0 | 0.00 | 0.00 | 0.00 | 71 | 1025.0 | |
| 20260906111515 | 61 | 0.0 | 0.0 | 0.00 | 0.00 | 0.00 | 70 | 1025.0 | |
| 20260906110515 | 62 | 0.0 | 0.0 | 0.00 | 0.00 | 0.00 | 69 | 1025.0 | |
| 20260906105515 | 62 | 274 | 0.0 | 1.0 | 0.00 | 0.00 | 0.00 | 68 | 1025.0 |
| 20260906104516 | 63 | 0.0 | 0.0 | 0.00 | 0.00 | 0.00 | 67 | 1024.9 | |
| 20260906103516 | 63 | 0.0 | 0.0 | 0.00 | 0.00 | 0.00 | 67 | 1024.9 | |
| 20260906102516 | 63 | 0.0 | 0.0 | 0.00 | 0.00 | 0.00 | 67 | 1024.7 | |
| 20260906101517 | 63 | 0.0 | 0.0 | 0.00 | 0.00 | 0.00 | 67 | 1024.9 | |
| 20260906100515 | 63 | 280 | 0.0 | 1.0 | 0.00 | 0.00 | 0.00 | 67 | 1024.8 |
| 20260906095515 | 63 | 146 | 0.0 | 1.0 | 0.00 | 0.00 | 0.00 | 67 | 1024.7 |
| 20260906094536 | 63 | 135 | 0.0 | 1.0 | 0.00 | 0.00 | 0.00 | 66 | 1024.7 |
| 20260906093516 | 63 | 0.0 | 0.0 | 0.00 | 0.00 | 0.00 | 66 | 1024.7 | |
| 20260906092516 | 64 | 135 | 0.0 | 1.0 | 0.00 | 0.00 | 0.00 | 65 | 1024.7 |
| 20260906091537 | 64 | 135 | 0.0 | 1.0 | 0.00 | 0.00 | 0.00 | 63 | 1024.6 |
| 20260906090537 | 65 | 0.0 | 0.0 | 0.00 | 0.00 | 0.00 | 62 | 1024.6 | |
| 20260906085515 | 66 | 0.0 | 0.0 | 0.00 | 0.00 | 0.00 | 60 | 1024.5 | |
| 20260906084515 | 66 | 135 | 0.0 | 1.0 | 0.00 | 0.00 | 0.00 | 59 | 1024.6 |
| 20260906083516 | 67 | 135 | 0.0 | 1.0 | 0.00 | 0.00 | 0.00 | 59 | 1024.6 |
| 20260906082516 | 67 | 0.0 | 0.0 | 0.00 | 0.00 | 0.00 | 59 | 1024.8 | |
| 20260906081517 | 67 | 0.0 | 0.0 | 0.00 | 0.00 | 0.00 | 58 | 1024.8 | |
| 20260906080017 | 68 | 133 | 0.0 | 1.0 | 0.00 | 0.00 | 0.00 | 57 | 1024.8 |
| 20260906075015 | 68 | 0.0 | 0.0 | 0.00 | 0.00 | 0.00 | 57 | 1024.9 | |
| 20260906074135 | 69 | 134 | 0.0 | 2.0 | 0.00 | 0.00 | 0.00 | 57 | 1024.8 |
| 20260906073015 | 69 | 135 | 0.0 | 2.0 | 0.00 | 0.00 | 0.00 | 56 | 1024.7 |
| 20260906072016 | 69 | 131 | 0.0 | 2.0 | 0.00 | 0.00 | 0.00 | 56 | 1024.6 |
| 20260906071036 | 69 | 104 | 0.0 | 1.0 | 0.00 | 0.00 | 0.00 | 57 | 1024.6 |
| 20260906070040 | 69 | 48 | 0.0 | 1.0 | 0.00 | 0.00 | 0.00 | 57 | 1024.5 |
| 20260906065037 | 69 | 0.0 | 0.0 | 0.00 | 0.00 | 0.00 | 56 | 1024.4 | |
| 20260906064055 | 70 | 0.0 | 0.0 | 0.00 | 0.00 | 0.00 | 55 | 1024.3 | |
| 20260906063015 | 70 | 36 | 0.0 | 1.0 | 0.00 | 0.00 | 0.00 | 54 | 1024.5 |
| 20260906062016 | 71 | 0.0 | 0.0 | 0.00 | 0.00 | 0.00 | 53 | 1024.4 | |
| 20260906061016 | 71 | 0.0 | 0.0 | 0.00 | 0.00 | 0.00 | 52 | 1024.5 | |
| 20260906060016 | 72 | 84 | 0.0 | 1.0 | 0.00 | 0.00 | 0.00 | 51 | 1024.7 |
| 20260906055017 | 72 | 83 | 0.0 | 3.0 | 0.00 | 0.00 | 0.00 | 49 | 1024.9 |
| 20260906054017 | 72 | 81 | 0.0 | 2.0 | 0.00 | 0.00 | 0.00 | 47 | 1025.0 |
| 20260906053015 | 72 | 129 | 0.0 | 1.0 | 0.00 | 0.00 | 0.00 | 47 | 1024.8 |
| 20260906052015 | 72 | 0.0 | 0.0 | 0.00 | 0.00 | 0.00 | 48 | 1024.7 | |
| 20260906051016 | 72 | 129 | 0.0 | 1.0 | 0.00 | 0.00 | 0.00 | 46 | 1024.7 |
| 20260906050016 | 72 | 0.0 | 0.0 | 0.00 | 0.00 | 0.00 | 46 | 1024.9 | |
| 20260906045016 | 73 | 0.0 | 0.0 | 0.00 | 0.00 | 0.00 | 46 | 1024.9 | |
| 20260906044017 | 73 | 0.0 | 0.0 | 0.00 | 0.00 | 0.00 | 45 | 1025.1 | |
| 20260906043014 | 74 | 0.0 | 0.0 | 0.00 | 0.00 | 0.00 | 45 | 1025.0 | |
| 20260906042035 | 75 | 0.0 | 0.0 | 0.00 | 0.00 | 0.00 | 44 | 1024.9 | |
| 20260906041015 | 75 | 0.0 | 0.0 | 0.00 | 0.00 | 0.00 | 41 | 1024.9 | |
| 20260906040016 | 76 | 0.0 | 0.0 | 0.00 | 0.00 | 0.00 | 40 | 1025.0 | |
| 20260906034016 | 77 | 129 | 0.0 | 2.0 | 0.00 | 0.00 | 0.00 | 39 | 1025.1 |
| 20260906033017 | 75 | 104 | 1.0 | 3.0 | 0.00 | 0.00 | 0.00 | 40 | 1025.0 |
| 20260906032014 | 75 | 137 | 1.0 | 3.0 | 0.00 | 0.00 | 0.00 | 42 | 1024.7 |
| 20260906031015 | 75 | 0.0 | 0.0 | 0.00 | 0.00 | 0.00 | 41 | 1024.0 | |
| 20260906030016 | 75 | 0.0 | 0.0 | 0.00 | 0.00 | 0.00 | 41 | 1023.8 | |
| 20260906025016 | 75 | 0.0 | 0.0 | 0.00 | 0.00 | 0.00 | 42 | 1023.6 | |
| 20260906024016 | 75 | 0.0 | 0.0 | 0.00 | 0.00 | 0.00 | 41 | 1023.5 | |
| 20260906023017 | 77 | 0.0 | 0.0 | 0.00 | 0.00 | 0.00 | 40 | 1023.3 | |
| 20260906022037 | 78 | 0.0 | 0.0 | 0.00 | 0.00 | 0.00 | 38 | 1023.1 | |
| 20260906021015 | 79 | 0.0 | 0.0 | 0.00 | 0.00 | 0.00 | 36 | 1023.0 | |
| 20260906020015 | 80 | 0.0 | 0.0 | 0.00 | 0.00 | 0.00 | 35 | 1023.0 | |
| 20260906015015 | 81 | 137 | 0.0 | 1.0 | 0.00 | 0.00 | 0.00 | 35 | 1023.0 |
| 20260906014016 | 81 | 137 | 0.0 | 1.0 | 0.00 | 0.00 | 0.00 | 34 | 1022.8 |
| 20260906013017 | 82 | 136 | 0.0 | 1.0 | 0.00 | 0.00 | 0.00 | 34 | 1022.8 |
| 20260906012017 | 83 | 139 | 0.0 | 1.0 | 0.00 | 0.00 | 0.00 | 33 | 1022.7 |
| 20260906011017 | 84 | 138 | 1.0 | 1.0 | 0.00 | 0.00 | 0.00 | 32 | 1022.7 |
| 20260906010015 | 84 | 145 | 0.0 | 3.0 | 0.00 | 0.00 | 0.00 | 32 | 1022.8 |
| 20260906005035 | 85 | 259 | 0.0 | 1.0 | 0.00 | 0.00 | 0.00 | 32 | 1022.8 |
| 20260906004015 | 85 | 150 | 0.0 | 1.0 | 0.00 | 0.00 | 0.00 | 31 | 1022.8 |
| 20260906003016 | 86 | 132 | 0.0 | 1.0 | 0.00 | 0.00 | 0.00 | 30 | 1022.7 |
| 20260906002016 | 86 | 146 | 0.0 | 2.0 | 0.00 | 0.00 | 0.00 | 30 | 1022.7 |
| 20260906001017 | 87 | 145 | 1.0 | 4.0 | 0.00 | 0.00 | 0.00 | 29 | 1022.7 |
| 20260906000035 | 88 | 139 | 1.0 | 4.0 | 0.00 | 0.00 | 0.00 | 29 | 1022.6 |
| 20260905235015 | 91 | 145 | 2.0 | 4.0 | 0.00 | 0.00 | 0.00 | 27 | 1022.6 |
| 20260905234055 | 93 | 136 | 0.0 | 1.0 | 0.00 | 0.00 | 0.00 | 24 | 1022.5 |
| 20260905233036 | 92 | 136 | 0.0 | 1.0 | 0.00 | 0.00 | 0.00 | 25 | 1022.5 |
| 20260905232016 | 92 | 143 | 1.0 | 4.0 | 0.00 | 0.00 | 0.00 | 25 | 1022.5 |
| 20260905231036 | 92 | 108 | 0.0 | 1.0 | 0.00 | 0.00 | 0.00 | 25 | 1022.5 |
| 20260905230017 | 92 | 141 | 0.0 | 1.0 | 0.00 | 0.00 | 0.00 | 24 | 1022.5 |
| 20260905225014 | 91 | 0.0 | 0.0 | 0.00 | 0.00 | 0.00 | 25 | 1022.5 | |
| 20260905224015 | 89 | 155 | 0.0 | 1.0 | 0.00 | 0.00 | 0.00 | 27 | 1022.5 |
| 20260905223015 | 87 | 0.0 | 0.0 | 0.00 | 0.00 | 0.00 | 29 | 1022.6 | |
| 20260905222036 | 88 | 228 | 0.0 | 1.0 | 0.00 | 0.00 | 0.00 | 28 | 1022.7 |
| 20260905221016 | 89 | 222 | 0.0 | 1.0 | 0.00 | 0.00 | 0.00 | 27 | 1022.7 |
| 20260905220117 | 89 | 0.0 | 0.0 | 0.00 | 0.00 | 0.00 | 27 | 1022.7 | |
| 20260905215017 | 90 | 129 | 0.0 | 2.0 | 0.00 | 0.00 | 0.00 | 26 | 1022.8 |
| 20260905214015 | 92 | 98 | 1.0 | 2.0 | 0.00 | 0.00 | 0.00 | 25 | 1022.9 |